{"data":{"norad_id":36121,"epoch":"2026-09-19T22:35:15.938016Z","epoch_age_seconds":73962,"freshness":"FRESH","line1":"1 36121U 09072A   26262.94115669 -.00000260  00000+0 -67508-3 0  9998","line2":"2 36121 100.1995 142.3739 0021557 109.5754 250.7683 13.05086285801031","mean_motion":13.05086285,"eccentricity":0.0021557,"inclination_deg":100.1995,"raan_deg":142.3739,"arg_perigee_deg":109.5754,"mean_anomaly_deg":250.7683,"bstar":-0.00067508,"rev_number":80103,"period_min":110.33753220386,"perigee_km":1225.7993288539,"apogee_km":1258.6537642485,"semimajor_km":7620.3635465512,"source":"CELESTRAK","updated_at":"2026-09-20T09:00:13.744962Z"}}